Lid_Strength_Index
6 8 9 7 6 6 6 7 8 6 6 7 7 7 6 6 5 5 5 5 4 4 2 2 1 1 1 0 0 0 0 -0 -0 0 1 1 1 -0 -1 -1 -2 -2 -2 -2
7 9 7 7 6 6 6 7 8 6 6 7 7 8 6 6 6 5 5 5 5 4 3 2 2 1 1 1 1 0 0 -0 -0 0 -0 -0 -0 -0 -0 -1 -1 -2 -2 -2
8 7 7 7 8 7 7 7 7 8 7 7 7 9 7 6 5 5 4 4 4 4 4 3 2 2 1 1 1 1 0 0 -0 -0 -0 -0 -0 -0 0 -0 -0 -1 -1 -2
7 6 7 8 8 7 8 6 6 7 8 11 7 12 8 6 7 6 5 5 4 4 3 3 3 2 2 1 1 0 0 0 -0 -1 -0 0 1 1 1 0 -0 -1 -1 -1
8 7 8 9 8 7 7 5 6 7 8 9 9 11 8 7 7 7 6 5 4 3 3 3 3 2 1 1 1 1 0 0 -0 -0 -0 1 1 0 0 -0 -1 -1 -1 -1
6 5 6 6 7 7 6 6 6 6 8 12 9 10 9 8 7 6 5 5 4 3 3 3 2 2 2 1 1 1 1 1 0 0 0 0 0 0 1 0 1 0 -0 -0
7 7 6 6 7 7 7 7 11 12 12 12 8 10 9 6 5 5 4 4 4 3 3 3 3 2 2 2 1 1 1 1 0 0 0 0 0 0 0 0 1 -0 0 0
9 10 7 6 6 8 8 7 11 14 13 11 8 11 8 5 4 4 3 3 4 4 3 3 3 2 2 2 1 1 1 1 1 0 0 0 0 0 0 0 0 0 0 -0
9 9 5 5 5 6 8 8 6 9 8 10 9 8 6 5 5 4 4 4 4 4 3 3 2 2 2 2 2 1 1 1 1 1 0 0 0 0 0 -0 -0 -0 -1 -1
6 9 6 6 5 5 6 5 9 9 14 14 10 9 9 7 6 4 4 4 4 3 3 3 3 2 2 1 1 1 1 1 1 0 0 1 0 -0 -0 -0 0 -0 -1 -1
6 7 7 6 7 7 7 8 7 7 9 12 13 10 5 6 5 5 4 4 3 3 3 3 2 2 2 1 1 1 1 1 1 1 1 1 0 0 -0 0 0 -0 -0 -1
5 7 9 8 6 5 6 7 7 10 11 9 10 10 5 4 4 4 4 3 3 3 3 3 2 2 2 2 1 1 1 1 1 1 0 1 0 0 0 0 0 -0 -0 -1
5 8 10 9 7 6 7 7 6 7 7 10 11 10 5 4 4 4 4 3 3 3 3 3 3 3 2 2 2 1 1 1 1 1 1 1 1 1 1 1 1 -0 -0 0
5 7 9 10 9 7 8 7 7 7 9 9 9 8 6 5 5 4 3 3 3 4 3 3 3 3 2 2 2 2 1 1 1 1 1 1 1 1 1 0 1 1 -0 0
6 9 8 7 7 7 7 7 7 8 7 9 8 8 6 5 4 4 3 3 3 4 4 3 3 3 2 2 2 2 1 1 1 1 1 1 1 0 0 0 1 0 0 0
5 10 8 9 7 7 8 7 7 7 7 7 7 7 5 4 4 4 3 3 4 4 4 3 3 3 3 2 2 2 1 1 1 1 1 1 1 1 1 1 1 0 0 0
7 8 10 11 8 8 10 8 7 7 6 6 8 6 5 5 4 4 4 3 4 4 4 3 3 3 2 2 2 2 2 1 1 1 1 1 1 1 1 1 1 1 1 0
8 9 9 11 10 14 8 5 6 6 6 5 5 5 4 4 3 3 3 3 3 3 3 3 3 2 2 2 2 1 1 1 1 2 1 1 2 1 1 1 1 1 1 1
6 8 10 12 12 10 8 7 6 7 7 5 5 5 4 4 4 5 3 3 3 3 2 2 2 2 2 2 1 1 2 2 2 2 2 2 1 2 2 2 1 1 1 1
6 7 10 11 13 14 10 8 6 6 10 5 4 5 5 4 7 5 4 3 3 2 2 2 2 2 2 2 1 2 2 2 2 2 1 1 1 1 2 1 1 1 1 1
10 10 11 11 12 10 8 7 6 12 9 4 4 5 5 6 5 4 3 3 2 2 2 2 2 2 2 1 1 2 2 2 1 1 1 1 1 1 1 1 1 1 1 1
11 11 11 11 13 14 7 7 10 8 5 5 5 5 5 5 4 4 4 3 3 3 2 2 2 2 1 1 1 2 2 1 1 1 2 2 1 1 1 1 1 1 1 1
11 8 9 9 9 7 6 7 5 4 5 5 5 4 4 4 4 4 4 3 3 2 2 2 2 2 2 1 1 2 2 1 1 2 2 2 1 1 1 1 2 2 1 2
8 6 9 9 8 7 6 5 4 4 4 4 3 3 3 4 4 4 3 3 3 3 2 2 2 2 3 2 2 2 1 1 1 2 2 2 2 2 1 1 1 2 2 2
8 7 8 9 8 6 6 5 5 4 4 4 3 3 4 4 4 4 4 3 3 3 2 2 2 2 3 2 2 1 1 1 2 2 2 2 2 2 2 2 4 1 2 3
8 10 9 10 7 8 8 6 5 5 4 4 4 4 3 3 4 4 4 3 3 3 2 2 2 2 2 2 2 1 1 1 2 3 2 2 2 2 2 2 2 12 11 10